Date String (YYYY-MM-DD hh:mm:ss) UTC,Instrument flags,Ambient pressure (hPa),Sample flow (lpm),Bypass flow (lpm),Sample temperature (°C),Ambient temperature (°C),ASC tube jacket temperature (°C),LED temperature (°C),Box temperature (°C),Sample RH (%),Span deviation,Mass concentration (μg/m³),Mass concentration (μg/m³),Mass concentration (μg/m³)
DateTimeUTC,F1_M11,P_M11,Q1_M11,Q2_M11,T1_M11,T2_M11,T3_M11,T4_M11,T5_M11,U1_M11,ZSPAN_M11,X0_M11,X2_M11,X1_M11
2022-03-30 16:00:00,,0818.9,5.00,0.00,21.5,21.0,00.0,30.5,23.2,16.6,0000.8,0010.93,0007.81,0007.37
2022-03-30 16:01:00,,0818.9,5.00,0.00,21.5,20.9,00.0,30.5,23.2,16.4,0000.9,0010.98,0007.87,0007.41
2022-03-30 16:02:00,,0818.9,5.00,0.00,21.5,20.9,00.0,30.5,23.2,16.5,0001.1,0011.03,0007.91,0007.44
2022-03-30 16:03:00,,0818.9,5.01,0.00,21.5,20.9,00.0,30.5,23.2,17.3,0000.1,0011.03,0007.89,0007.42
2022-03-30 16:04:00,,0818.9,4.99,0.00,21.5,20.9,00.0,30.5,23.2,16.7,0000.0,0010.99,0007.85,0007.40
2022-03-30 16:05:00,,0818.9,4.99,0.00,21.5,21.0,00.0,30.5,23.2,16.0,0000.0,0010.97,0007.81,0007.37
2022-03-30 16:06:00,,0819.0,5.01,0.00,21.5,20.9,00.0,30.5,23.2,16.0,0000.0,0011.04,0007.81,0007.35
2022-03-30 16:07:00,,0819.1,5.00,0.00,21.5,20.9,00.0,30.5,23.2,16.3,0000.0,0010.95,0007.78,0007.35
2022-03-30 16:08:00,,0819.1,5.00,0.00,21.5,20.9,00.0,30.5,23.2,15.9,0000.0,0010.74,0007.76,0007.32
2022-03-30 16:09:00,,0819.0,5.00,0.00,21.5,20.9,00.0,30.5,23.2,15.8,0000.0,0010.25,0007.71,0007.29
2022-03-30 16:10:00,,0819.0,5.00,0.00,21.5,20.9,00.0,30.5,23.2,16.2,0000.0,0010.24,0007.67,0007.25
2022-03-30 16:11:00,,0819.0,5.01,0.00,21.5,20.9,00.0,30.5,23.2,16.3,0000.0,0010.33,0007.62,0007.21
2022-03-30 16:12:00,,0819.0,5.00,0.00,21.5,20.9,00.0,30.5,23.2,16.2,0000.0,0010.27,0007.56,0007.17
2022-03-30 16:13:00,,0818.9,5.01,0.00,21.5,20.9,00.0,30.5,23.2,16.1,0000.0,0010.36,0007.54,0007.13
2022-03-30 16:14:00,,0818.9,5.00,0.00,21.5,20.9,00.0,30.5,23.2,15.9,0000.0,0010.40,0007.53,0007.11
2022-03-30 16:15:00,,0818.9,5.00,0.00,21.5,20.8,00.0,30.5,23.2,15.8,0000.0,0010.52,0007.55,0007.11
2022-03-30 16:16:00,,0818.9,5.00,0.00,21.5,20.8,00.0,30.5,23.2,15.8,0000.0,0010.56,0007.55,0007.11
2022-03-30 16:17:00,,0819.0,5.01,0.00,21.5,20.8,00.0,30.5,23.2,16.0,0000.0,0010.42,0007.52,0007.09
2022-03-30 16:18:00,,0818.9,4.99,0.00,21.5,20.9,00.0,30.5,23.3,16.7,0000.0,0010.36,0007.48,0007.05
2022-03-30 16:19:00,,0819.0,5.00,0.00,21.5,20.9,00.0,30.5,23.2,16.3,0000.0,0010.33,0007.45,0007.03
2022-03-30 16:20:00,,0818.9,5.00,0.00,21.5,20.9,00.0,30.5,23.2,16.0,0000.0,0010.39,0007.48,0007.04
2022-03-30 16:21:00,,0819.0,5.01,0.00,21.5,20.9,00.0,30.5,23.2,16.2,0000.0,0010.52,0007.55,0007.08
2022-03-30 16:22:00,,0819.0,5.00,0.00,21.5,20.9,00.0,30.5,23.2,16.1,0000.0,0010.47,0007.58,0007.11
2022-03-30 16:23:00,,0818.9,5.00,0.00,21.5,20.8,00.0,30.5,23.2,15.8,0000.0,0010.52,0007.62,0007.13
2022-03-30 16:24:00,,0818.9,5.00,0.00,21.5,20.9,00.0,30.5,23.3,15.9,0000.5,0010.66,0007.66,0007.16
2022-03-30 16:25:00,,0818.9,5.00,0.00,21.5,20.9,00.0,30.5,23.3,16.6,0001.9,0010.66,0007.69,0007.18
2022-03-30 16:26:00,,0818.9,5.00,0.00,21.5,20.9,00.0,30.5,23.3,16.1,0002.1,0010.71,0007.75,0007.22
2022-03-30 16:27:00,,0818.9,4.99,0.00,21.6,20.9,00.0,30.5,23.3,16.1,0002.1,0010.68,0007.79,0007.25
2022-03-30 16:28:00,,0818.9,4.99,0.00,21.6,21.0,00.0,30.5,23.3,16.3,0002.1,0010.67,0007.80,0007.28
2022-03-30 16:29:00,,0818.9,5.00,0.00,21.6,21.0,00.0,30.5,23.3,16.6,0001.9,0010.70,0007.79,0007.26
2022-03-30 16:30:00,,0819.0,5.00,0.00,21.5,20.9,00.0,30.5,23.2,16.1,0002.0,0010.72,0007.81,0007.28
2022-03-30 16:31:00,,0819.0,5.00,0.00,21.5,20.8,00.0,30.5,23.1,16.0,0002.3,0010.78,0007.83,0007.30
2022-03-30 16:32:00,,0819.0,5.02,0.00,21.4,20.7,00.0,30.5,23.1,16.0,0002.2,0010.74,0007.82,0007.31
2022-03-30 16:33:00,,0819.0,5.00,0.00,21.4,20.7,00.0,30.5,23.1,16.0,0002.7,0010.87,0007.89,0007.35
2022-03-30 16:34:00,,0819.0,5.00,0.00,21.4,20.8,00.0,30.5,23.1,15.7,0002.3,0010.95,0007.94,0007.39
2022-03-30 16:35:00,,0818.9,5.00,0.00,21.4,20.8,00.0,30.5,23.1,15.7,0002.6,0010.89,0007.98,0007.42
2022-03-30 16:36:00,,0818.9,4.99,0.00,21.5,21.4,00.0,30.5,23.3,15.9,0002.8,0011.09,0008.05,0007.48
2022-03-30 16:37:00,,0819.0,5.01,0.00,21.6,22.7,00.0,30.6,23.6,16.0,0002.6,0011.31,0008.05,0007.48
2022-03-30 16:38:00,,0818.9,4.99,0.00,21.8,23.3,00.0,30.6,23.9,16.3,0001.6,0011.23,0008.00,0007.44
2022-03-30 16:39:00,,0818.9,5.01,0.00,21.9,23.0,00.0,30.7,24.0,15.8,0001.6,0011.36,0007.99,0007.41
2022-03-30 16:40:00,,0818.8,5.00,0.00,21.9,22.8,00.0,30.7,23.9,16.0,0001.5,0011.34,0007.99,0007.43
2022-03-30 16:41:00,,0818.8,4.99,0.00,21.9,22.5,00.0,30.7,23.8,15.8,0001.8,0011.37,0007.98,0007.41
2022-03-30 16:42:00,,0818.8,4.99,0.00,21.9,22.2,00.0,30.8,23.8,15.5,0002.8,0011.28,0007.94,0007.39
2022-03-30 16:43:00,,0818.8,5.01,0.00,21.9,21.9,00.0,30.8,23.7,15.3,0003.5,0011.26,0007.92,0007.37
2022-03-30 16:44:00,,0818.8,5.00,0.00,21.9,21.7,00.0,30.8,23.6,15.5,0003.0,0011.14,0007.85,0007.34
2022-03-30 16:45:00,,0818.9,5.00,0.00,21.9,21.6,00.0,30.8,23.7,16.0,0003.2,0011.12,0007.81,0007.32
2022-03-30 16:46:00,,0818.9,5.00,0.00,21.9,21.6,00.0,30.8,23.7,15.9,0003.1,0011.16,0007.78,0007.27
2022-03-30 16:47:00,,0818.9,5.00,0.00,21.9,21.5,00.0,30.8,23.6,15.8,0002.8,0011.03,0007.69,0007.19
2022-03-30 16:48:00,,0818.9,5.00,0.00,21.8,21.4,00.0,30.8,23.6,15.7,0002.7,0010.63,0007.57,0007.09
2022-03-30 16:49:00,,0818.8,5.00,0.00,21.8,21.2,00.0,30.8,23.5,15.4,0003.3,0011.55,0007.51,0007.04
2022-03-30 16:50:00,,0818.8,5.00,0.00,21.8,21.2,00.0,30.8,23.5,15.8,0002.8,0011.43,0007.47,0006.99
2022-03-30 16:51:00,,0818.8,4.99,0.00,21.8,21.2,00.0,30.8,23.5,16.1,0002.9,0011.59,0007.45,0006.96
2022-03-30 16:52:00,,0818.8,4.99,0.00,21.8,21.1,00.0,30.8,23.5,15.8,0002.8,0012.03,0007.41,0006.93
2022-03-30 16:53:00,,0818.8,5.00,0.00,21.8,21.2,00.0,30.8,23.5,15.9,0002.0,0011.92,0007.34,0006.87
2022-03-30 16:54:00,,0818.8,5.00,0.00,21.8,21.2,00.0,30.8,23.5,15.7,0001.3,0011.93,0007.29,0006.81
2022-03-30 16:55:00,,0818.8,5.00,0.00,21.8,21.2,00.0,30.8,23.5,16.5,0000.9,0012.37,0007.21,0006.73
2022-03-30 16:56:00,,0818.8,5.00,0.00,21.7,21.2,00.0,30.8,23.4,15.7,0000.7,0013.27,0007.26,0006.72
2022-03-30 16:57:00,,0818.8,5.00,0.00,21.7,21.1,00.0,30.8,23.4,16.3,0000.4,0013.62,0007.29,0006.76
2022-03-30 16:58:00,,0818.8,5.00,0.00,21.7,21.1,00.0,30.8,23.4,16.5,0000.2,0014.23,0007.35,0006.83
2022-03-30 16:59:00,,0818.8,5.00,0.00,21.7,21.1,00.0,30.8,23.4,15.8,0000.8,0014.30,0007.41,0006.88
